Simultaneous Nadir Overpasses (SNOs) Predictions

Prediction of SNOs between NOAA-20 and NOAA-19 Satellite Orbit:

Table of predicted SNOs for the next 14.0 days since TLE Epoch: 10/17/2020
Index Date (NOAA-20) Time (NOAA-20) Lat,Lon (NOAA-20) SZA (NOAA-20 ) Date (NOAA-19) Time (NOAA-19) Lat,Lon (NOAA-19) SZA (NOAA-19 ) Distance(km) Time Diff (sec)
1 10/30/2020 15:59:40 -78.93, 89.92 85.96 10/30/2020 15:58:35 -78.93, 89.88 85.94 0.85 65
2 10/30/2020 16:50:25 78.93,-102.75 94.05 10/30/2020 16:49:31 78.94,-102.83 94.08 1.87 54
3 10/30/2020 17:41:10 -78.93, 64.53 85.94 10/30/2020 17:40:35 -78.95, 64.51 85.91 1.72 35
4 10/30/2020 18:31:55 78.93,-128.14 94.07 10/30/2020 18:31:31 78.95,-128.20 94.11 2.72 24
5 10/30/2020 19:22:40 -78.94, 39.14 85.91 10/30/2020 19:22:35 -78.96, 39.14 85.88 3.25 5
6 10/30/2020 20:13:26 78.97,-153.78 94.15 10/30/2020 20:13:32 78.93,-153.83 94.13 3.96 6
7 10/30/2020 21:04:11 -78.97, 13.50 85.83 10/30/2020 21:04:36 -78.95, 13.51 85.87 2.80 25
8 10/30/2020 21:54:56 78.97,-179.17 94.18 10/30/2020 21:55:32 78.95,-179.21 94.15 2.38 36
9 10/30/2020 22:45:41 -78.98, -11.89 85.81 10/30/2020 22:46:36 -78.96, -11.86 85.84 1.34 55
10 10/30/2020 23:36:26 78.97, 155.45 94.20 10/30/2020 23:37:32 78.97, 155.42 94.18 0.84 66
